JUGNU

Last updated on Wed Oct 29 2025 00:03:09 GMT+0000 (Coordinated Universal Time)

1 37839U 11058B 25301.28931486 .00000615 00000+0 18178-3 0 9996 2 37839 19.9612 277.1907 0018671 36.1300 0.8174 14.13668181726171
UTC large
Height (km)
Speed (km/s)
/
Latitude / Longitude
Inclination (degrees)
Orbital Period (minutes)
Azimuth
Elevation
Range (km)
Doppler Factor

Next 0 passes for location: London (51.5072 / 0.1276)

Sorry there are no passes over London.